MDT,Max TemperatureF,Mean TemperatureF,Min TemperatureF,Max Dew PointF,MeanDew PointF,Min DewpointF,Max Humidity, Mean Humidity, Min Humidity, Max Sea Level PressureIn, Mean Sea Level PressureIn, Min Sea Level PressureIn, Max VisibilityMiles, Mean VisibilityMiles, Min VisibilityMiles, Max Wind SpeedMPH, Mean Wind SpeedMPH, Max Gust SpeedMPH,PrecipitationIn, CloudCover, Events, WindDirDegrees
2013-4-1,45,32,18,27,17,11,81,57,33,30.06,29.90,29.77,10,10,6,20,4,25,T,5,Snow,203
2013-4-2,37,29,21,25,24,19,92,72,52,30.09,29.96,29.77,10,5,0,16,4,24,0.27,7,Fog-Snow,10
2013-4-3,39,28,17,25,19,13,92,63,34,30.17,30.06,29.89,10,8,1,21,7,26,0.00,5,Snow,10
2013-4-4,47,33,18,19,15,12,77,51,25,30.16,30.08,29.97,10,10,10,17,6,22,0.00,0,,22
2013-4-5,47,36,24,30,22,12,100,64,27,30.07,29.92,29.71,10,6,1,20,7,26,0.05,6,Snow,325
2013-4-6,43,33,23,27,20,11,81,54,27,30.05,29.85,29.78,10,9,1,18,10,28,0.03,5,Snow,328
2013-4-7,38,33,27,27,21,13,78,60,41,30.05,29.81,29.65,10,9,0,24,7,32,0.01,7,Fog-Rain-Snow,344
2013-4-8,42,31,20,30,25,14,100,65,30,29.66,29.50,29.26,10,6,0,35,8,43,T,6,Fog-Snow,161
2013-4-9,31,19,7,28,18,6,100,90,80,29.88,29.60,29.31,10,4,0,25,13,31,0.30,8,Fog-Snow,178
2013-4-10,26,15,4,13,7,1,88,69,50,29.95,29.88,29.82,10,8,1,22,12,29,0.02,6,Snow,335
2013-4-11,35,24,13,23,18,8,84,68,51,29.95,29.85,29.75,10,6,1,28,10,33,0.02,8,Snow,312
2013-4-12,38,28,17,25,19,9,88,62,35,30.01,29.90,29.76,10,5,0,25,6,31,0.12,7,Fog-Snow,13
2013-4-13,42,28,13,29,16,2,92,58,23,29.88,29.62,29.33,10,8,0,24,8,41,0.32,4,Fog-Snow,165
2013-4-14,28,24,19,28,16,6,96,69,42,29.66,29.57,29.35,10,5,0,26,12,37,0.42,8,Fog-Snow,334
2013-4-15,31,24,16,27,21,15,96,84,72,29.77,29.64,29.46,10,2,0,20,7,26,0.42,8,Fog-Snow,292
2013-4-16,44,29,14,21,17,11,100,64,27,29.78,29.64,29.44,10,8,1,32,11,44,T,7,,184
2013-4-17,29,19,9,23,15,1,92,75,57,29.84,29.65,29.45,10,6,0,32,11,53,0.02,8,Fog-Snow,214
2013-4-18,19,10,1,5,-1,-5,87,63,39,30.30,30.02,29.84,10,10,6,30,13,43,T,6,Snow,340
2013-4-19,31,17,2,18,6,-2,87,67,46,30.28,30.15,29.96,10,10,10,21,10,28,0.00,5,,1
2013-4-20,38,28,17,25,20,12,81,63,44,30.13,29.98,29.83,10,7,1,21,8,26,0.02,7,Snow,315
2013-4-21,40,31,21,25,19,11,92,62,32,30.19,30.06,29.87,10,6,0,21,7,28,0.05,6,Fog-Snow,353
2013-4-22,37,28,19,28,24,18,96,75,54,30.06,29.95,29.74,10,4,0,21,9,26,0.15,8,Fog-Rain-Snow,335
2013-4-23,26,16,5,21,13,1,96,69,42,30.19,29.97,29.81,10,4,0,23,8,31,0.16,7,Fog-Snow,253
2013-4-24,35,18,1,10,3,-4,83,54,24,30.23,30.18,30.14,10,10,6,25,7,35,T,4,,322
2013-4-25,46,28,10,17,8,3,73,47,20,30.19,30.01,29.88,10,10,10,26,6,35,0.00,1,,279
2013-4-26,47,33,19,14,8,0,67,42,16,30.19,30.07,29.92,10,10,10,18,4,23,0.00,1,,9
2013-4-27,50,33,15,17,12,6,92,55,18,30.23,30.13,30.05,10,10,10,21,7,30,0.00,0,,354
2013-4-28,53,39,25,18,14,10,55,40,24,30.06,29.93,29.83,10,10,10,18,7,24,0.00,1,,353
2013-4-29,55,41,27,23,17,12,75,47,18,29.86,29.69,29.55,10,10,10,24,10,36,0.00,2,,328
2013-4-30,55,45,34,25,17,13,45,33,21,29.93,29.53,29.45,10,10,10,29,10,43,0.00,4,,232